STARLINK-31363, 59782

Orbit data source: Space-Track

STARLINK-31363, 59782 is a payload satellite owned by SpaceX/Seattle (US) in LEO that was launched on Sat, 18 May 2024 UTC via an FALCON 9 launch vehicle from the Air Force Eastern Test Range (AFETR). Payload-class satellites include a variety of spacecraft equipped with specific instruments for various scientific and technological missions. These include communications satellites like Starlink; space stations such as the ISS; scientific satellites like the Hubble; Earth observation satellites from companies like Planet Labs, Umbra, and HawkEye 360; GPS; miniature CubeSats for education and research; and military/defense satellites.

Loading next visibility...
Identifier
59782, 2024-093A
Orbit
LEO
Last TLE update
22 hours ago
Origin
Manufacturer
SpaceX/Seattle
Mission
Operational spacecraft
Bus & Motor
STARLINK V2M, Unknown motor
Mass
730 kg wet, ~700 kg dry
Launch date (UTC)
2024-05-18 (1 year ago)
Launch vehicle
FALCON 9
Launch site
Air Force Eastern Test Range (AFETR)
Object type
Payload
Rocket body
Debris
Shape & HBR
Unknown
Radar Cross Section
Large (>1 m²)

Expand to show TLE details & history

TLE from 22 hours ago
0 STARLINK-31363
1 59782U 24093A   25128.47684373  .00001003  00000-0  45949-4 0  9998
2 59782  43.0007 129.3642 0000657 263.5659  96.5118 15.27578590 56053
Epoch: 2025-05-08T11:26Z
Definitive object data (Epoch: 2025-05-08T11:26:39.298Z)
Latitude
Longitude
91.15368°
Altitude
482.88 km
Speed
7.626 km/s
True Right ascension
08h 37m 27s
True Declination
0° 00' 00"
Sunlit
Object was in daylight at TLE epoch
Visualization TLE readout
Latitude
30.94741°
Longitude
125.68158°
Altitude
484.118 km
Speed
7.628 km/s
Apparent Right ascension
08h 38m 00s
Apparent Declination
-3° 47' 43"
Sunlit
Object is in daylight
Visualization observer readout
Local Sidereal Time
17:46:55
Azimuth
301.743° NW
Elevation
-37.174°
Doppler factor
1
Orbital elements
Apogee altitude
485.449 km
Perigee altitude
484.547 km
Semi-major axis
6,863.135 km
Eccentricity
0.0000657
Inclination
43.0007°
RAAN
129.3642°
Arg. of periapsis
263.5659°
True anomaly
96.51928°
Mean anomaly
96.5118°
Eccentric anomaly
96.51554°
Mean motion
3.81733 °/min
BSTAR
0.000045949
Orbital period
94.31 mins
Loading maneuver chart data...
Loading SW <> Apogee altitude chart data...
Loading historical data...
Loading historical data...
Loading historical data...
Loading historical data...
Loading historical data...
Loading historical data...
Loading historical data...

STARLINK-31363 Visibility forecast

Observer location: undefined°, undefined°

Span
Click to sort rows by Start time (UTC) header in descending order
Start Az.
Max El. time (UTC)
Max El. Az.
Max El.
End time (UTC)
End Az.
5 mins2025-05-10 02:53:33.665Z209.605° SW2025-05-10 02:55:33.665Z161.188° S31.137°2025-05-10 02:58:33.665Z87.036° E
5 mins2025-05-10 04:32:33.665Z269.385° W2025-05-10 04:34:33.665Z335.398° NNW42.529°2025-05-10 04:37:33.665Z68.712° E
5 mins2025-05-10 06:11:33.665Z293.864° NW2025-05-10 06:13:33.665Z344.214° N38.132°2025-05-10 06:16:33.665Z79.376° E
6 mins2025-05-10 07:50:33.665Z282.02° WNW2025-05-10 07:52:33.665Z242.37° WSW41.674°2025-05-10 07:56:33.665Z119.855° SE
|